[[{"header":{"parameterUnit":"m.s-1","parameterCategory":1,"la1":30.2991,"la2":30.254,"lo1":-89.0895,"lo2":-89.0444,"dy":0.0017,"dx":0.0017,"nx":28,"ny":28,"refTime":"2024-04-09T03:00:00:Z","depth":0,"parameterNumber":2,"parameterNumberName":"U-component_of_WINDS"},"data":[0,0,0,0,0,0,0,0,0,0,0,0,0,0,0,0,0,0,0,0,0,0,0,0,0,0,0,0,0,0,0,0,0,0,0,0,0,0,0,0,0,0,0,0,0,0,0,0,0,0,0,0,0,0,0,0,0,0,-1.9276,-1.9279,0,-1.9558,-1.9562,-1.9565,-1.9706,-1.9706,-1.9706,-1.9706,-1.9997,-2.0005,-2.0012,0,0,0,0,0,0,0,0,0,0,0,0,0,-1.8862,-1.8868,-1.9276,-1.928,-1.9283,-1.9558,-1.9562,-1.9566,-1.9706,-1.9706,-1.9706,-1.9706,-1.9995,-2.0004,-2.0013,0,0,0,0,0,0,0,0,0,0,0,0,0,-1.9082,-1.8871,-1.9275,-1.9386,-1.9399,-1.9557,-1.9562,-1.9567,-1.9706,-1.9706,-1.9706,-1.9706,-1.9992,-2.0003,-2.0014,-2.0084,0,0,-2.005,-2.0055,0,0,0,0,0,0,0,0,-1.907,-1.9097,-1.9367,-1.9379,-1.9394,-1.9597,-1.9523,-1.974,-1.9706,-1.959,-1.9706,-1.9706,-1.9864,-1.9886,-1.9939,-2.0098,-2.011,-2.0051,-2.0058,-2.0063,-2.0066,0,0,0,0,0,0,0,-1.9054,-1.9086,-1.9388,-1.937,-1.9387,-1.9423,-1.9454,-1.9564,-1.9723,-1.96,-1.9611,-1.9642,-1.9872,-1.9928,-1.9947,-2.0115,-2.005,-2.0061,-2.0068,-2.0072,-2.0347,-2.0347,0,0,0,0,0,0,-1.9021,-1.9072,-1.9379,-1.9396,-1.9228,-1.943,-1.9465,-1.9532,-1.9722,-1.9751,-1.9642,-1.9648,-1.9908,-1.9933,-1.9958,-2.0054,-2.0063,-2.0073,-2.008,-2.0346,-2.0347,-2.0347,0,0,0,0,0,0,-1.9011,-1.9047,-1.9368,-1.9238,-1.9281,-1.9437,-1.9511,-1.9537,-1.9594,-1.9754,-1.9783,-1.967,-1.9909,-1.9942,-2.0052,-2.0066,-2.0079,-2.0089,-2.0346,-2.0346,-2.0347,-2.0244,0,0,0,0,0,0,-1.8999,-1.9042,-1.907,-1.9237,-1.9287,-1.9456,-1.9511,-1.9543,-1.9613,-1.9623,-1.9788,-1.9815,-1.9912,-2.0034,-2.0063,-2.0082,-2.0098,-2.0345,-2.0346,-2.0347,-2.0247,-2.0241,-2.0236,0,0,0,0,0,-1.8983,-1.903,-1.907,-1.9107,-1.9325,-1.9456,-1.9485,-1.9595,-1.9613,-1.9643,-1.9746,-1.981,-2.0059,-2.0044,-2.0078,-2.01,-2.0345,-2.0346,-2.0347,-2.0249,-2.0242,-2.0236,0,0,0,0,0,0,-1.8861,-1.9054,-1.9101,-1.9203,-1.9312,-1.948,-1.952,-1.9583,-1.969,-1.9695,-1.9827,-1.9863,-1.9962,-2.0042,-2.0022,-2.0179,-2.0208,-2.0216,-2.0123,-2.0117,-2.0112,-2.0091,-2.0108,0,0,0,0,0,-1.8845,-1.8935,-1.9099,-1.9173,-1.9225,-1.9363,-1.9424,-1.9499,-1.9618,-1.9665,-1.9776,-1.989,-1.9994,-2.006,-2.0164,-2.0259,-2.0298,-2.0291,-2.0285,-2.028,-2.0286,-2.0343,-2.0343,-2.035,-2.035,-2.035,0,0,-1.8815,-1.8931,-1.898,-1.9151,-1.9245,-1.9336,-1.9401,-1.9494,-1.9564,-1.968,-1.9791,-1.9876,-2.0012,-2.0115,-2.0166,-2.0185,-2.0292,-2.0281,-2.0276,-2.0285,-2.0344,-2.0343,-2.0342,-2.035,-2.035,-2.035,0,0,-1.8806,-1.8902,-1.8975,-1.9067,-1.9208,-1.9299,-1.9316,-1.9475,-1.9537,-1.965,-1.9739,-1.9824,-2.0,-2.0093,-2.0164,-2.019,-2.0254,-2.0221,-2.0192,-2.0247,-2.0246,-2.0247,-2.0258,-2.026,-2.0225,-2.0225,-2.0225,0,-1.875,-1.889,-1.9005,-1.9094,-1.9167,-1.9275,-1.9351,-1.9435,-1.9602,-1.9651,-1.967,-1.9894,-1.9992,-2.012,-2.0126,-2.0179,-2.0204,-2.0203,-2.0237,-2.0238,-2.024,-2.0252,-2.0256,-2.022,-2.0221,-2.0221,-2.0222,0,-1.8816,-1.8912,-1.8954,-1.9112,-1.9191,-1.9272,-1.9399,-1.9465,-1.9532,-1.9622,-1.9737,-1.9859,-1.9991,-2.0026,-2.0093,-2.0164,-2.0171,-2.0211,-2.0244,-2.0233,-2.0246,-2.0252,-2.0213,-2.0215,-2.0216,-2.0218,0,0,-1.8739,-1.8959,-1.8973,-1.9047,-1.921,-1.9287,-1.9373,-1.9502,-1.9556,-1.9668,-1.9745,-1.9891,-1.993,-2.001,-2.0088,-2.0136,-2.0151,-2.0171,-2.0177,-2.0165,-2.0238,-2.0207,-2.0211,-2.0194,-2.0195,-2.0196,-2.0227,0,-1.8754,-1.8914,-1.9019,-1.9138,-1.9229,-1.9333,-1.9409,-1.9517,-1.9603,-1.9694,-1.9789,-1.9892,-1.9934,-1.9983,-2.0035,-2.0138,-2.0168,-2.0137,-2.0268,-2.0272,-2.0232,-2.0218,-2.0186,-2.0209,-2.0233,-2.0234,-2.0235,0,-1.8793,-1.8902,-1.9029,-1.9183,-1.9225,-1.9291,-1.9418,-1.9502,-1.9628,-1.9688,-1.9776,-1.9856,-1.9954,-1.9977,-2.0114,-2.009,-2.015,-2.0209,-2.0213,-2.023,-2.0253,-2.0236,-2.0219,-2.0223,-2.0244,-2.0243,-2.0242,0,-1.8726,-1.8903,-1.9003,-1.9063,-1.9245,-1.9289,-1.9367,-1.9493,-1.9563,-1.9674,-1.9722,-1.9842,-1.9909,-2.0001,-2.0112,-2.0118,-2.0238,-2.027,-2.0291,-2.0288,-2.0313,-2.031,-2.0306,-2.0348,-2.0348,-2.0348,-2.0348,0,-1.8733,-1.8807,-1.8975,-1.9037,-1.9123,-1.9244,-1.9327,-1.9414,-1.9525,-1.9606,-1.9703,-1.9777,-1.9919,-2.001,-2.0098,-2.0199,-2.0228,-2.0279,-2.0302,-2.0272,-2.0265,-2.0314,-2.0316,-2.0349,-2.0349,-2.0349,-2.0349,0,-1.8672,-1.8788,-1.8904,-1.9066,-1.9109,-1.9165,-1.9305,-1.9369,-1.946,-1.9562,-1.9592,-1.9735,-1.9849,-1.9968,-2.0122,-2.0181,-2.0279,-2.0309,-2.0236,-2.0249,-2.0264,-2.0261,-2.0293,-2.0304,-2.0335,-2.0335,-2.0335,0,-1.867,-1.8729,-1.8898,-1.8958,-1.9034,-1.913,-1.9203,-1.9324,-1.9396,-1.9544,-1.9591,-1.9711,-1.9814,-1.999,-2.0109,-2.0227,-2.0263,-2.0266,-2.0281,-2.0249,-2.0265,-2.0261,-2.0268,-2.026,-2.0259,-2.0259,-2.0258,0,-1.8653,-1.8708,-1.8808,-1.8929,-1.9012,-1.9113,-1.9218,-1.9263,-1.9405,-1.9481,-1.9597,-1.9677,-1.9834,-1.9953,-2.0086,-2.0168,-2.0237,-2.0252,-2.0264,-2.0234,-2.0189,-2.0215,-2.0223,-2.0251,-2.0252,-2.0252,-2.0253,-2.0253,-1.8624,-1.8682,-1.8809,-1.8918,-1.901,-1.9105,-1.9174,-1.9273,-1.9372,-1.9509,-1.9575,-1.9692,-1.9818,-2.0003,-2.0083,-2.0178,-2.0198,-2.0214,-2.0219,-2.0221,-2.0214,-2.0173,-2.0202,-2.0202,-2.0203,-2.0203,-2.0203,0,-1.8614,-1.8701,-1.8799,-1.8943,-1.9029,-1.9085,-1.9204,-1.9273,-1.9374,-1.9485,-1.9584,-1.9719,-1.9835,-1.9962,-2.0086,-2.0137,-2.0172,-2.0165,-2.0164,-2.0182,-2.0188,-2.0166,-2.0135,-2.0135,-2.0135,-2.0135,-2.0135,-2.0135,-1.8618,-1.872,-1.879,-1.8938,-1.9026,-1.914,-1.9204,-1.9293,-1.9383,-1.9528,-1.9624,-1.9706,-1.9825,-1.9958,-2.0067,-2.0102,-2.0144,-2.0128,-2.0172,-2.0176,-2.0181,-2.0186,-2.0167,-2.0136,-2.0136,-2.0159,-2.0159,-2.0159]},{"header":{"parameterUnit":"m.s-1","parameterCategory":1,"la1":30.2991,"la2":30.254,"lo1":-89.0895,"lo2":-89.0444,"dy":0.0017,"dx":0.0017,"nx":28,"ny":28,"refTime":"2024-04-09T03:00:00:Z","depth":0,"parameterNumber":3,"parameterNumberName":"V-component_of_WINDS"},"data":[0,0,0,0,0,0,0,0,0,0,0,0,0,0,0,0,0,0,0,0,0,0,0,0,0,0,0,0,0,0,0,0,0,0,0,0,0,0,0,0,0,0,0,0,0,0,0,0,0,0,0,0,0,0,0,0,0,0,11.7447,11.7451,0,11.7815,11.7819,11.7823,11.7845,11.7841,11.7837,11.7833,11.8202,11.8215,11.8229,0,0,0,0,0,0,0,0,0,0,0,0,0,11.6755,11.6768,11.7446,11.7451,11.7456,11.7814,11.7819,11.7824,11.7846,11.7841,11.7836,11.7831,11.8198,11.8214,11.823,0,0,0,0,0,0,0,0,0,0,0,0,0,11.7083,11.6772,11.7446,11.751,11.7519,11.7813,11.782,11.7826,11.7847,11.7841,11.7835,11.7829,11.8192,11.8212,11.8233,11.8485,0,0,11.8295,11.8304,0,0,0,0,0,0,0,0,11.7064,11.7108,11.7496,11.7506,11.7517,11.7778,11.7711,11.8046,11.7849,11.7723,11.7833,11.7826,11.8066,11.8096,11.8179,11.8502,11.8518,11.8297,11.831,11.8319,11.8324,0,0,0,0,0,0,0,11.7041,11.7092,11.7592,11.7501,11.7515,11.7518,11.7558,11.7775,11.7924,11.7733,11.7736,11.7779,11.807,11.8159,11.8188,11.8523,11.8297,11.8315,11.8328,11.8336,11.9074,11.9081,0,0,0,0,0,0,11.7007,11.7073,11.758,11.7603,11.7271,11.7536,11.758,11.7701,11.7922,11.795,11.7784,11.7779,11.8127,11.8163,11.8201,11.8512,11.8318,11.8338,11.8349,11.9067,11.9076,11.9084,0,0,0,0,0,0,11.6992,11.7052,11.7565,11.7339,11.7405,11.7555,11.7689,11.7711,11.78,11.7961,11.7987,11.7848,11.8123,11.8172,11.8415,11.8525,11.8347,11.8366,11.9058,11.907,11.908,11.9136,0,0,0,0,0,0,11.6972,11.7047,11.7145,11.7341,11.7417,11.7776,11.7696,11.7723,11.7836,11.7833,11.8028,11.8054,11.8122,11.8384,11.8436,11.855,11.8382,11.9049,11.9063,11.9076,11.9125,11.9147,11.9166,0,0,0,0,0,11.6948,11.7144,11.715,11.7211,11.7544,11.7782,11.7825,11.7902,11.7845,11.7945,11.8049,11.8048,11.8505,11.8409,11.8467,11.8589,11.9043,11.9059,11.9075,11.9115,11.9143,11.9166,0,0,0,0,0,0,11.6953,11.7171,11.718,11.7446,11.7596,11.7785,11.7913,11.7928,11.8095,11.8084,11.817,11.8214,11.8455,11.8547,11.8436,11.8846,11.8767,11.8796,11.8778,11.8805,11.8826,11.8798,11.8399,0,0,0,0,0,11.6986,11.7164,11.7343,11.7561,11.7636,11.7762,11.7868,11.7916,11.8073,11.8135,11.8257,11.8407,11.8585,11.87,11.8872,11.9138,11.9181,11.9251,11.9272,11.9288,11.9312,11.946,11.9494,11.9138,11.9137,11.9137,0,0,11.7054,11.7195,11.7302,11.7566,11.7687,11.7868,11.7815,11.8007,11.8142,11.8163,11.8402,11.8497,11.867,11.8927,11.9045,11.901,11.942,11.9309,11.9321,11.9336,11.9481,11.9514,11.9544,11.9149,11.9147,11.9145,0,0,11.7272,11.7396,11.7592,11.7717,11.7903,11.7986,11.8033,11.8222,11.8286,11.8528,11.8549,11.8708,11.9013,11.9137,11.9239,11.9507,11.9512,11.956,11.9669,11.9813,11.9841,11.9866,11.9962,11.9996,11.9583,11.9584,11.9584,0,11.7332,11.7608,11.769,11.7885,11.8,11.8032,11.8231,11.8346,11.8577,11.8655,11.8613,11.8998,11.9117,11.9404,11.947,11.9551,11.9607,11.9538,11.9831,11.9857,11.9882,11.9974,12.001,11.9588,11.9588,11.9587,11.9587,0,11.7673,11.7864,11.8,11.8227,11.8358,11.8553,11.8663,11.8786,11.8822,11.8909,11.9155,11.9299,11.9503,11.9574,11.9609,11.9867,11.9839,11.9813,11.9735,11.9919,12.0007,12.0043,11.9595,11.9593,11.9592,11.9591,0,0,11.7901,11.8176,11.8224,11.8328,11.8538,11.8686,11.8882,11.9085,11.9188,11.9347,11.9513,11.9772,11.9751,11.9867,11.9917,12.0044,12.0248,12.0003,12.0008,12.0043,12.054,12.0558,12.0598,12.0253,12.026,12.0266,12.0526,0,11.8142,11.8496,11.8578,11.888,11.9058,11.9093,11.9264,11.941,11.9497,11.9659,11.9754,11.9936,11.9894,11.9965,12.0091,12.0196,12.0348,12.0178,12.0407,12.0415,12.0363,12.0644,12.0664,12.0902,12.0561,12.0567,12.0571,0,11.8469,11.8641,11.8963,11.9152,11.9229,11.9382,11.9575,11.973,11.9896,11.9951,12.0083,12.0121,12.0325,12.0239,12.0522,12.0404,12.0503,12.0569,12.058,12.0603,12.0503,12.0675,12.098,12.1015,12.0626,12.0622,12.0618,0,11.8604,11.8915,11.9149,11.9237,11.9463,11.957,11.9668,11.9829,11.9946,12.0114,12.0191,12.0379,12.0482,12.0626,12.0714,12.0643,12.099,12.091,12.104,12.1038,12.1111,12.1105,12.1435,12.1175,12.1174,12.1174,12.1173,0,11.8864,11.9059,11.9213,11.9356,11.9576,11.9668,11.9882,11.998,12.0124,12.0286,12.0326,12.0477,12.0584,12.0749,12.0818,12.1042,12.1088,12.1137,12.1153,12.1134,12.1128,12.1199,12.1184,12.1183,12.1181,12.1179,12.1178,0,11.9051,11.9162,11.9419,11.9613,11.9667,11.9821,11.9986,12.0126,12.0215,12.042,12.0473,12.0612,12.0809,12.0912,12.1156,12.1203,12.1455,12.1461,12.14,12.1406,12.1531,12.1517,12.1918,12.1975,12.1677,12.1679,12.1682,0,11.9209,11.9361,11.9574,11.9687,11.9789,11.997,12.0092,12.0188,12.0312,12.0515,12.063,12.083,12.0995,12.1308,12.1429,12.1617,12.1628,12.1756,12.1656,12.1633,12.163,12.162,12.1636,12.1772,12.1775,12.1777,12.1779,0,11.9478,11.9527,11.9701,11.9897,12.0042,12.0199,12.0354,12.0444,12.0565,12.0702,12.0906,12.1034,12.1287,12.1485,12.1682,12.1781,12.1801,12.181,12.185,12.1831,12.179,12.1814,12.1447,12.18,12.1798,12.1796,12.1795,12.1794,11.9656,11.9794,11.9966,12.016,12.0288,12.0433,12.0575,12.0684,12.0857,12.1072,12.1118,12.1333,12.1497,12.1766,12.1871,12.204,12.2013,12.2071,12.2086,12.2098,12.2104,12.1764,12.2076,12.2076,12.2075,12.2075,12.2075,0,11.9927,12.0041,12.0219,12.0438,12.059,12.0599,12.0772,12.0898,12.1089,12.1242,12.1405,12.164,12.1833,12.1971,12.2167,12.2276,12.229,12.2324,12.2317,12.234,12.2117,12.2063,12.231,12.231,12.231,12.231,12.231,12.231,12.0087,12.0321,12.039,12.0688,12.08,12.1014,12.1112,12.1246,12.1369,12.1631,12.1793,12.1883,12.2031,12.2238,12.2416,12.2451,12.2521,12.2555,12.2591,12.238,12.2355,12.2331,12.2281,12.257,12.257,12.28,12.2802,12.2804]}]]